date,time,SUV Intensity [MED/Hr],UV Index,Daily total [MED],Since Last [MED]
23/08/2023,00:00:25,0.000,0.0,0.0,0.0
23/08/2023,00:01:25,0.001,0.0,0.0,0.0
23/08/2023,00:02:26,0.001,0.0,0.0,0.0
23/08/2023,00:03:25,0.000,0.0,0.0,0.0
23/08/2023,00:04:25,-0.000,0.0,0.0,0.0
23/08/2023,00:05:23,0.000,0.0,0.0,0.0
23/08/2023,00:06:23,0.001,0.0,0.0,0.0
23/08/2023,00:07:25,0.000,0.0,0.0,0.0
23/08/2023,00:08:25,0.001,0.0,0.0,0.0
23/08/2023,00:09:26,-0.000,0.0,0.0,0.0
23/08/2023,00:10:25,0.000,0.0,0.0,0.0
23/08/2023,00:11:25,0.000,0.0,0.0,0.0
23/08/2023,00:12:25,0.001,0.0,0.0,0.0
23/08/2023,00:13:26,0.000,0.0,0.0,0.0
23/08/2023,00:14:25,-0.001,0.0,0.0,0.0
23/08/2023,00:15:25,-0.000,0.0,0.0,0.0
23/08/2023,00:16:25,-0.000,0.0,0.0,0.0
23/08/2023,00:17:25,-0.000,0.0,0.0,0.0
23/08/2023,00:18:23,-0.000,0.0,0.0,0.0
23/08/2023,00:19:23,-0.000,0.0,0.0,0.0
23/08/2023,00:20:25,0.000,0.0,0.0,0.0
23/08/2023,00:21:25,0.000,0.0,0.0,0.0
23/08/2023,00:22:25,0.000,0.0,0.0,0.0
23/08/2023,00:23:25,0.000,0.0,0.0,0.0
23/08/2023,00:24:25,-0.000,0.0,0.0,0.0
23/08/2023,00:25:25,0.000,0.0,0.0,0.0
23/08/2023,00:26:25,0.000,0.0,0.0,0.0
23/08/2023,00:27:26,0.000,0.0,0.0,0.0
23/08/2023,00:28:25,0.000,0.0,0.0,0.0
23/08/2023,00:29:25,0.000,0.0,0.0,0.0
23/08/2023,00:30:25,0.000,0.0,0.0,0.0
23/08/2023,00:31:25,-0.001,0.0,0.0,0.0
23/08/2023,00:32:25,-0.000,0.0,0.0,0.0
23/08/2023,00:33:47,-0.000,0.0,0.0,0.0
23/08/2023,00:34:24,0.000,0.0,0.0,0.0
23/08/2023,00:35:26,0.000,0.0,0.0,0.0
23/08/2023,00:36:25,0.000,0.0,0.0,0.0
23/08/2023,00:37:26,0.000,0.0,0.0,0.0
23/08/2023,00:38:25,-0.000,0.0,0.0,0.0
23/08/2023,00:39:26,0.000,0.0,0.0,0.0
23/08/2023,00:40:25,0.000,0.0,0.0,0.0
23/08/2023,00:41:25,-0.000,0.0,0.0,0.0
23/08/2023,00:42:23,0.000,0.0,0.0,0.0
23/08/2023,00:43:23,0.000,0.0,0.0,0.0
23/08/2023,00:44:25,0.000,0.0,0.0,0.0
23/08/2023,00:45:25,-0.000,0.0,0.0,0.0
23/08/2023,00:46:25,0.000,0.0,0.0,0.0
23/08/2023,00:47:25,0.000,0.0,0.0,0.0
23/08/2023,00:48:25,0.000,0.0,0.0,0.0
23/08/2023,00:49:25,0.001,0.0,0.0,0.0
23/08/2023,00:50:25,0.000,0.0,0.0,0.0
23/08/2023,00:51:23,-0.000,0.0,0.0,0.0
23/08/2023,00:52:24,0.000,0.0,0.0,0.0
23/08/2023,00:53:25,0.000,0.0,0.0,0.0
23/08/2023,00:54:25,0.000,0.0,0.0,0.0
23/08/2023,00:55:25,-0.000,0.0,0.0,0.0
23/08/2023,00:56:26,0.000,0.0,0.0,0.0
23/08/2023,00:57:25,0.001,0.0,0.0,0.0
23/08/2023,00:58:25,0.000,0.0,0.0,0.0
23/08/2023,00:59:25,0.000,0.0,0.0,0.0
23/08/2023,01:00:26,0.000,0.0,0.0,0.0
23/08/2023,01:01:25,0.000,0.0,0.0,0.0
23/08/2023,01:02:25,0.000,0.0,0.0,0.0
23/08/2023,01:03:25,-0.001,0.0,0.0,0.0
23/08/2023,01:04:25,0.000,0.0,0.0,0.0
23/08/2023,01:05:25,0.000,0.0,0.0,0.0
23/08/2023,01:06:26,0.001,0.0,0.0,0.0
23/08/2023,01:07:25,0.000,0.0,0.0,0.0
23/08/2023,01:08:25,0.000,0.0,0.0,0.0
23/08/2023,01:09:25,0.001,0.0,0.0,0.0
23/08/2023,01:10:26,0.000,0.0,0.0,0.0
23/08/2023,01:11:25,0.000,0.0,0.0,0.0
23/08/2023,01:12:25,0.000,0.0,0.0,0.0
23/08/2023,01:13:25,0.000,0.0,0.0,0.0
23/08/2023,01:14:25,0.000,0.0,0.0,0.0
23/08/2023,01:15:25,-0.001,0.0,0.0,0.0
23/08/2023,01:16:26,0.000,0.0,0.0,0.0
23/08/2023,01:17:25,-0.000,0.0,0.0,0.0
23/08/2023,01:18:26,-0.000,0.0,0.0,0.0
23/08/2023,01:19:25,0.001,0.0,0.0,0.0
23/08/2023,01:20:25,0.000,0.0,0.0,0.0
23/08/2023,01:21:25,0.000,0.0,0.0,0.0
23/08/2023,01:22:25,0.000,0.0,0.0,0.0
23/08/2023,01:23:25,0.000,0.0,0.0,0.0
23/08/2023,01:24:25,0.000,0.0,0.0,0.0
23/08/2023,01:25:25,0.000,0.0,0.0,0.0
23/08/2023,01:26:25,-0.000,0.0,0.0,0.0
23/08/2023,01:27:25,0.001,0.0,0.0,0.0
23/08/2023,01:28:23,0.000,0.0,0.0,0.0
23/08/2023,01:29:23,-0.000,0.0,0.0,0.0
23/08/2023,01:30:26,0.000,0.0,0.0,0.0
23/08/2023,01:31:25,-0.000,0.0,0.0,0.0
23/08/2023,01:32:25,0.000,0.0,0.0,0.0
23/08/2023,01:33:26,-0.000,0.0,0.0,0.0
23/08/2023,01:34:25,0.001,0.0,0.0,0.0
23/08/2023,01:35:26,0.001,0.0,0.0,0.0
23/08/2023,01:36:25,-0.000,0.0,0.0,0.0
23/08/2023,01:37:25,0.000,0.0,0.0,0.0
23/08/2023,01:38:25,0.000,0.0,0.0,0.0
23/08/2023,01:39:25,-0.000,0.0,0.0,0.0
23/08/2023,01:40:25,0.000,0.0,0.0,0.0
23/08/2023,01:41:26,0.000,0.0,0.0,0.0
23/08/2023,01:42:25,-0.000,0.0,0.0,0.0
23/08/2023,01:43:25,0.000,0.0,0.0,0.0
23/08/2023,01:44:25,0.001,0.0,0.0,0.0
23/08/2023,01:45:26,0.000,0.0,0.0,0.0
23/08/2023,01:46:25,-0.000,0.0,0.0,0.0
23/08/2023,01:47:26,-0.001,0.0,0.0,0.0
23/08/2023,01:48:25,0.000,0.0,0.0,0.0
23/08/2023,01:49:25,0.000,0.0,0.0,0.0
23/08/2023,01:50:25,0.001,0.0,0.0,0.0
23/08/2023,01:51:25,0.001,0.0,0.0,0.0
23/08/2023,01:52:25,-0.000,0.0,0.0,0.0
23/08/2023,01:53:26,0.001,0.0,0.0,0.0
23/08/2023,01:54:25,0.001,0.0,0.0,0.0
23/08/2023,01:55:26,0.000,0.0,0.0,0.0
23/08/2023,01:56:25,0.000,0.0,0.0,0.0
23/08/2023,01:57:25,0.000,0.0,0.0,0.0
23/08/2023,01:58:25,0.000,0.0,0.0,0.0
23/08/2023,01:59:25,0.000,0.0,0.0,0.0
23/08/2023,02:00:25,0.001,0.0,0.0,0.0
23/08/2023,02:01:25,0.000,0.0,0.0,0.0
23/08/2023,02:02:25,-0.000,0.0,0.0,0.0
23/08/2023,02:03:26,0.000,0.0,0.0,0.0
23/08/2023,02:04:25,-0.000,0.0,0.0,0.0
23/08/2023,02:05:26,0.000,0.0,0.0,0.0
23/08/2023,02:06:25,0.000,0.0,0.0,0.0
23/08/2023,02:07:25,0.001,0.0,0.0,0.0
23/08/2023,02:08:25,0.000,0.0,0.0,0.0
23/08/2023,02:09:23,0.001,0.0,0.0,0.0
23/08/2023,02:10:24,0.000,0.0,0.0,0.0
23/08/2023,02:11:26,0.000,0.0,0.0,0.0
23/08/2023,02:12:25,0.000,0.0,0.0,0.0
23/08/2023,02:13:25,0.000,0.0,0.0,0.0
23/08/2023,02:14:25,0.000,0.0,0.0,0.0
23/08/2023,02:15:25,0.000,0.0,0.0,0.0
23/08/2023,02:16:25,-0.000,0.0,0.0,0.0
23/08/2023,02:17:25,0.000,0.0,0.0,0.0
23/08/2023,02:18:25,0.000,0.0,0.0,0.0
23/08/2023,02:19:26,0.002,0.0,0.0,0.0
23/08/2023,02:20:25,0.001,0.0,0.0,0.0
23/08/2023,02:21:25,0.002,0.0,0.0,0.0
23/08/2023,02:22:25,0.000,0.0,0.0,0.0
23/08/2023,02:23:25,0.000,0.0,0.0,0.0
23/08/2023,02:24:25,0.000,0.0,0.0,0.0
23/08/2023,02:25:25,0.000,0.0,0.0,0.0
23/08/2023,02:26:25,0.001,0.0,0.0,0.0
23/08/2023,02:27:26,0.000,0.0,0.0,0.0
23/08/2023,02:28:25,-0.000,0.0,0.0,0.0
23/08/2023,02:29:26,0.000,0.0,0.0,0.0
23/08/2023,02:30:25,0.001,0.0,0.0,0.0
23/08/2023,02:31:25,0.000,0.0,0.0,0.0
23/08/2023,02:32:25,0.001,0.0,0.0,0.0
23/08/2023,02:33:25,0.000,0.0,0.0,0.0
23/08/2023,02:34:26,0.001,0.0,0.0,0.0
23/08/2023,02:35:25,0.001,0.0,0.0,0.0
23/08/2023,02:36:25,-0.000,0.0,0.0,0.0
23/08/2023,02:37:26,0.001,0.0,0.0,0.0
23/08/2023,02:38:25,0.001,0.0,0.0,0.0
23/08/2023,02:39:25,0.000,0.0,0.0,0.0
23/08/2023,02:40:25,0.000,0.0,0.0,0.0
23/08/2023,02:41:23,0.000,0.0,0.0,0.0
23/08/2023,02:42:23,0.000,0.0,0.0,0.0
23/08/2023,02:43:25,0.000,0.0,0.0,0.0
23/08/2023,02:44:26,0.000,0.0,0.0,0.0
23/08/2023,02:45:25,0.000,0.0,0.0,0.0
23/08/2023,02:46:26,0.000,0.0,0.0,0.0
23/08/2023,02:47:25,0.001,0.0,0.0,0.0
23/08/2023,02:48:25,0.000,0.0,0.0,0.0
23/08/2023,02:49:26,0.000,0.0,0.0,0.0
23/08/2023,02:50:25,0.001,0.0,0.0,0.0
23/08/2023,02:51:25,0.001,0.0,0.0,0.0
23/08/2023,02:52:25,-0.000,0.0,0.0,0.0
23/08/2023,02:53:26,0.001,0.0,0.0,0.0
23/08/2023,02:54:25,0.001,0.0,0.0,0.0
23/08/2023,02:55:26,0.000,0.0,0.0,0.0
23/08/2023,02:56:25,0.000,0.0,0.0,0.0
23/08/2023,02:57:26,0.001,0.0,0.0,0.0
23/08/2023,02:58:24,0.000,0.0,0.0,0.0
23/08/2023,02:59:24,0.000,0.0,0.0,0.0
23/08/2023,03:00:26,0.001,0.0,0.0,0.0
23/08/2023,03:01:25,0.000,0.0,0.0,0.0
23/08/2023,03:02:26,0.000,0.0,0.0,0.0
23/08/2023,03:03:25,0.000,0.0,0.0,0.0
23/08/2023,03:04:25,-0.000,0.0,0.0,0.0
23/08/2023,03:05:25,0.001,0.0,0.0,0.0
23/08/2023,03:06:26,0.001,0.0,0.0,0.0
23/08/2023,03:07:25,-0.000,0.0,0.0,0.0
23/08/2023,03:08:26,-0.000,0.0,0.0,0.0
23/08/2023,03:09:25,0.000,0.0,0.0,0.0
23/08/2023,03:10:25,-0.000,0.0,0.0,0.0
23/08/2023,03:11:26,0.000,0.0,0.0,0.0
23/08/2023,03:12:25,0.001,0.0,0.0,0.0
23/08/2023,03:13:25,0.000,0.0,0.0,0.0
23/08/2023,03:14:25,-0.001,0.0,0.0,0.0
23/08/2023,03:15:26,0.000,0.0,0.0,0.0
23/08/2023,03:16:25,0.000,0.0,0.0,0.0
23/08/2023,03:17:26,0.000,0.0,0.0,0.0
23/08/2023,03:18:25,0.000,0.0,0.0,0.0
23/08/2023,03:19:23,0.000,0.0,0.0,0.0
23/08/2023,03:20:24,0.000,0.0,0.0,0.0
23/08/2023,03:21:26,0.000,0.0,0.0,0.0
23/08/2023,03:22:25,0.000,0.0,0.0,0.0
23/08/2023,03:23:25,0.000,0.0,0.0,0.0
23/08/2023,03:24:25,0.001,0.0,0.0,0.0
23/08/2023,03:25:26,0.000,0.0,0.0,0.0
23/08/2023,03:26:25,0.000,0.0,0.0,0.0
23/08/2023,03:27:26,0.000,0.0,0.0,0.0
23/08/2023,03:28:25,0.000,0.0,0.0,0.0
23/08/2023,03:29:25,-0.000,0.0,0.0,0.0
23/08/2023,03:30:26,0.000,0.0,0.0,0.0
23/08/2023,03:31:25,0.001,0.0,0.0,0.0
23/08/2023,03:32:25,0.001,0.0,0.0,0.0
23/08/2023,03:33:25,0.000,0.0,0.0,0.0
23/08/2023,03:34:26,-0.000,0.0,0.0,0.0
23/08/2023,03:35:25,0.000,0.0,0.0,0.0
23/08/2023,03:36:25,0.000,0.0,0.0,0.0
23/08/2023,03:37:23,0.000,0.0,0.0,0.0
23/08/2023,03:38:23,0.000,0.0,0.0,0.0
23/08/2023,03:39:25,0.000,0.0,0.0,0.0
23/08/2023,03:40:25,0.000,0.0,0.0,0.0
23/08/2023,03:41:26,0.001,0.0,0.0,0.0
23/08/2023,03:42:25,-0.001,0.0,0.0,0.0
23/08/2023,03:43:25,-0.000,0.0,0.0,0.0
23/08/2023,03:44:25,0.000,0.0,0.0,0.0
23/08/2023,03:45:26,-0.000,0.0,0.0,0.0
23/08/2023,03:46:25,-0.000,0.0,0.0,0.0
23/08/2023,03:47:25,0.000,0.0,0.0,0.0
23/08/2023,03:48:25,0.000,0.0,0.0,0.0
23/08/2023,03:49:26,0.001,0.0,0.0,0.0
23/08/2023,03:50:25,0.001,0.0,0.0,0.0
23/08/2023,03:51:25,0.000,0.0,0.0,0.0
23/08/2023,03:52:26,0.000,0.0,0.0,0.0
23/08/2023,03:53:26,0.001,0.0,0.0,0.0
23/08/2023,03:54:25,0.001,0.0,0.0,0.0
23/08/2023,03:55:26,0.000,0.0,0.0,0.0
23/08/2023,03:56:25,0.000,0.0,0.0,0.0
23/08/2023,03:57:25,0.000,0.0,0.0,0.0
23/08/2023,03:58:26,0.001,0.0,0.0,0.0
23/08/2023,03:59:25,0.001,0.0,0.0,0.0
23/08/2023,04:00:26,0.000,0.0,0.0,0.0
23/08/2023,04:01:25,0.000,0.0,0.0,0.0
23/08/2023,04:02:26,0.000,0.0,0.0,0.0
23/08/2023,04:03:25,0.000,0.0,0.0,0.0
23/08/2023,04:04:26,0.000,0.0,0.0,0.0
23/08/2023,04:05:25,-0.000,0.0,0.0,0.0
23/08/2023,04:06:25,0.000,0.0,0.0,0.0
23/08/2023,04:07:25,0.001,0.0,0.0,0.0
23/08/2023,04:08:26,0.000,0.0,0.0,0.0
23/08/2023,04:09:26,0.001,0.0,0.0,0.0
23/08/2023,04:10:25,0.000,0.0,0.0,0.0
23/08/2023,04:11:25,0.000,0.0,0.0,0.0
23/08/2023,04:12:25,0.000,0.0,0.0,0.0
23/08/2023,04:13:26,0.001,0.0,0.0,0.0
23/08/2023,04:14:23,0.000,0.0,0.0,0.0
23/08/2023,04:15:23,0.000,0.0,0.0,0.0
23/08/2023,04:16:26,0.001,0.0,0.0,0.0
23/08/2023,04:17:25,0.000,0.0,0.0,0.0
23/08/2023,04:18:25,0.000,0.0,0.0,0.0
23/08/2023,04:19:25,0.001,0.0,0.0,0.0
23/08/2023,04:20:25,0.001,0.0,0.0,0.0
23/08/2023,04:21:26,0.001,0.0,0.0,0.0
23/08/2023,04:22:28,0.000,0.0,0.0,0.0
23/08/2023,04:23:25,0.001,0.0,0.0,0.0
23/08/2023,04:24:26,0.000,0.0,0.0,0.0
23/08/2023,04:25:26,0.001,0.0,0.0,0.0
23/08/2023,04:26:26,0.000,0.0,0.0,0.0
23/08/2023,04:27:25,0.001,0.0,0.0,0.0
23/08/2023,04:28:26,0.000,0.0,0.0,0.0
23/08/2023,04:29:25,0.000,0.0,0.0,0.0
23/08/2023,04:30:25,0.000,0.0,0.0,0.0
23/08/2023,04:31:25,0.001,0.0,0.0,0.0
23/08/2023,04:32:25,0.001,0.0,0.0,0.0
23/08/2023,04:33:26,0.001,0.0,0.0,0.0
23/08/2023,04:34:25,0.001,0.0,0.0,0.0
23/08/2023,04:35:26,0.001,0.0,0.0,0.0
23/08/2023,04:36:26,0.001,0.0,0.0,0.0
23/08/2023,04:37:25,0.001,0.0,0.0,0.0
23/08/2023,04:38:26,0.001,0.0,0.0,0.0
23/08/2023,04:39:25,-0.000,0.0,0.0,0.0
23/08/2023,04:40:25,0.000,0.0,0.0,0.0
23/08/2023,04:41:26,0.000,0.0,0.0,0.0
23/08/2023,04:42:26,0.000,0.0,0.0,0.0
23/08/2023,04:43:25,0.001,0.0,0.0,0.0
23/08/2023,04:44:25,0.001,0.0,0.0,0.0
23/08/2023,04:45:26,0.002,0.0,0.0,0.0
23/08/2023,04:46:23,0.001,0.0,0.0,0.0
23/08/2023,04:47:23,0.001,0.0,0.0,0.0
23/08/2023,04:48:26,0.000,0.0,0.0,0.0
23/08/2023,04:49:25,0.001,0.0,0.0,0.0
23/08/2023,04:50:26,0.001,0.0,0.0,0.0
23/08/2023,04:51:25,0.001,0.0,0.0,0.0
23/08/2023,04:52:26,0.002,0.0,0.0,0.0
23/08/2023,04:53:25,0.002,0.0,0.0,0.0
23/08/2023,04:54:25,0.002,0.0,0.0,0.0
23/08/2023,04:55:25,0.003,0.0,0.0,0.0
23/08/2023,04:56:26,0.002,0.0,0.0,0.0
23/08/2023,04:57:26,0.002,0.0,0.0,0.0
23/08/2023,04:58:25,0.002,0.0,0.0,0.0
23/08/2023,04:59:25,0.002,0.0,0.0,0.0
23/08/2023,05:00:25,0.002,0.0,0.0,0.0
23/08/2023,05:01:24,0.002,0.0,0.0,0.0
23/08/2023,05:02:23,0.003,0.0,0.0,0.0
23/08/2023,05:03:26,0.003,0.0,0.0,0.0
23/08/2023,05:04:25,0.004,0.0,0.0,0.0
23/08/2023,05:05:26,0.004,0.0,0.0,0.0
23/08/2023,05:06:25,0.004,0.0,0.0,0.0
23/08/2023,05:07:25,0.004,0.0,0.0,0.0
23/08/2023,05:08:25,0.005,0.0,0.0,0.0
23/08/2023,05:09:26,0.004,0.0,0.0,0.0
23/08/2023,05:10:26,0.005,0.0,0.0,0.0
23/08/2023,05:11:25,0.005,0.0,0.0,0.0
23/08/2023,05:12:26,0.006,0.0,0.0,0.0
23/08/2023,05:13:25,0.005,0.0,0.0,0.0
23/08/2023,05:14:26,0.006,0.0,0.0,0.0
23/08/2023,05:15:25,0.007,0.0,0.0,0.0
23/08/2023,05:16:26,0.006,0.0,0.0,0.0
23/08/2023,05:17:25,0.007,0.0,0.0,0.0
23/08/2023,05:18:26,0.007,0.0,0.0,0.0
23/08/2023,05:19:25,0.008,0.0,0.001,0.001
23/08/2023,05:20:26,0.008,0.0,0.001,0.0
23/08/2023,05:21:25,0.008,0.0,0.001,0.0
23/08/2023,05:22:26,0.009,0.0,0.001,0.0
23/08/2023,05:23:26,0.009,0.0,0.001,0.0
23/08/2023,05:24:26,0.009,0.0,0.001,0.0
23/08/2023,05:25:25,0.010,0.0,0.001,0.0
23/08/2023,05:26:25,0.010,0.0,0.002,0.001
23/08/2023,05:27:26,0.011,0.0,0.002,0.0
23/08/2023,05:28:25,0.012,0.0,0.002,0.0
23/08/2023,05:29:25,0.012,0.0,0.002,0.0
23/08/2023,05:30:25,0.012,0.0,0.002,0.0
23/08/2023,05:31:26,0.013,0.0,0.003,0.001
23/08/2023,05:32:25,0.014,0.0,0.003,0.0
23/08/2023,05:33:27,0.014,0.0,0.003,0.0
23/08/2023,05:34:25,0.014,0.0,0.003,0.0
23/08/2023,05:35:26,0.014,0.0,0.004,0.001
23/08/2023,05:36:25,0.016,0.0,0.004,0.0
23/08/2023,05:37:26,0.016,0.0,0.004,0.0
23/08/2023,05:38:25,0.017,0.0,0.004,0.0
23/08/2023,05:39:26,0.017,0.0,0.005,0.001
23/08/2023,05:40:25,0.018,0.0,0.005,0.0
23/08/2023,05:41:26,0.019,0.0,0.005,0.0
23/08/2023,05:42:25,0.019,0.0,0.006,0.001
23/08/2023,05:43:26,0.020,0.0,0.006,0.0
23/08/2023,05:44:25,0.021,0.0,0.006,0.0
23/08/2023,05:45:26,0.021,0.0,0.007,0.001
23/08/2023,05:46:25,0.022,0.0,0.007,0.0
23/08/2023,05:47:26,0.022,0.0,0.007,0.0
23/08/2023,05:48:26,0.023,0.0,0.008,0.001
23/08/2023,05:49:25,0.024,0.0,0.008,0.0
23/08/2023,05:50:26,0.025,0.0,0.008,0.0
23/08/2023,05:51:25,0.026,0.0,0.009,0.001
23/08/2023,05:52:25,0.027,0.0,0.009,0.0
23/08/2023,05:53:25,0.027,0.0,0.01,0.001
23/08/2023,05:54:26,0.028,0.0,0.01,0.0
23/08/2023,05:55:25,0.029,0.0,0.011,0.001
23/08/2023,05:56:26,0.029,0.0,0.011,0.0
23/08/2023,05:57:26,0.029,0.0,0.012,0.001
23/08/2023,05:58:25,0.030,0.0,0.012,0.0
23/08/2023,05:59:25,0.031,0.0,0.013,0.001
23/08/2023,06:00:26,0.033,0.0,0.013,0.0
23/08/2023,06:01:26,0.033,0.0,0.014,0.001
23/08/2023,06:02:25,0.033,0.0,0.014,0.0
23/08/2023,06:03:26,0.035,0.0,0.015,0.001
23/08/2023,06:04:25,0.036,0.0,0.015,0.0
23/08/2023,06:05:26,0.037,0.0,0.016,0.001
23/08/2023,06:06:25,0.037,0.0,0.017,0.001
23/08/2023,06:07:25,0.039,0.0,0.017,0.0
23/08/2023,06:08:26,0.041,0.0,0.018,0.001
23/08/2023,06:09:26,0.043,0.0,0.019,0.001
23/08/2023,06:10:26,0.044,0.0,0.019,0.0
23/08/2023,06:11:26,0.046,0.0,0.02,0.001
23/08/2023,06:12:25,0.048,0.0,0.021,0.001
23/08/2023,06:13:25,0.049,0.0,0.022,0.001
23/08/2023,06:14:23,0.049,0.0,0.023,0.001
23/08/2023,06:15:23,0.052,0.0,0.023,0.0
23/08/2023,06:16:25,0.054,0.0,0.024,0.001
23/08/2023,06:17:26,0.058,0.0,0.025,0.001
23/08/2023,06:18:25,0.058,0.0,0.026,0.001
23/08/2023,06:19:30,0.060,0.0,0.027,0.001
23/08/2023,06:20:27,0.062,0.0,0.028,0.001
23/08/2023,06:21:26,0.063,0.0,0.029,0.001
23/08/2023,06:22:25,0.064,0.0,0.03,0.001
23/08/2023,06:23:26,0.066,0.0,0.031,0.001
23/08/2023,06:24:25,0.067,0.0,0.033,0.002
23/08/2023,06:25:25,0.069,0.0,0.034,0.001
23/08/2023,06:26:25,0.070,0.0,0.035,0.001
23/08/2023,06:27:26,0.071,0.0,0.036,0.001
23/08/2023,06:28:25,0.074,0.0,0.037,0.001
23/08/2023,06:29:26,0.077,0.0,0.039,0.002
23/08/2023,06:30:25,0.079,0.0,0.04,0.001
23/08/2023,06:31:25,0.082,0.0,0.041,0.001
23/08/2023,06:32:25,0.085,0.0,0.043,0.002
23/08/2023,06:33:26,0.088,0.0,0.044,0.001
23/08/2023,06:34:25,0.092,0.0,0.045,0.001
23/08/2023,06:35:26,0.096,0.0,0.047,0.002
23/08/2023,06:36:25,0.098,0.0,0.049,0.002
23/08/2023,06:37:26,0.102,0.0,0.05,0.001
23/08/2023,06:38:26,0.105,0.0,0.052,0.002
23/08/2023,06:39:26,0.108,0.0,0.054,0.002
23/08/2023,06:40:25,0.115,0.0,0.056,0.002
23/08/2023,06:41:26,0.116,0.0,0.058,0.002
23/08/2023,06:42:26,0.117,0.0,0.06,0.002
23/08/2023,06:43:26,0.114,0.0,0.062,0.002
23/08/2023,06:44:25,0.114,0.0,0.063,0.001
23/08/2023,06:45:26,0.117,0.0,0.065,0.002
23/08/2023,06:46:25,0.119,0.0,0.067,0.002
23/08/2023,06:47:26,0.119,0.0,0.069,0.002
23/08/2023,06:48:25,0.121,0.0,0.071,0.002
23/08/2023,06:49:26,0.118,0.0,0.073,0.002
23/08/2023,06:50:26,0.118,0.0,0.075,0.002
23/08/2023,06:51:25,0.119,0.0,0.077,0.002
23/08/2023,06:52:24,0.121,0.0,0.079,0.002
23/08/2023,06:53:24,0.122,0.0,0.081,0.002
23/08/2023,06:54:26,0.125,0.0,0.083,0.002
23/08/2023,06:55:26,0.126,0.0,0.085,0.002
23/08/2023,06:56:25,0.128,0.0,0.088,0.003
23/08/2023,06:57:26,0.131,0.0,0.09,0.002
23/08/2023,06:58:26,0.130,0.0,0.092,0.002
23/08/2023,06:59:26,0.131,0.0,0.094,0.002
23/08/2023,07:00:25,0.131,0.0,0.096,0.002
23/08/2023,07:01:26,0.132,0.0,0.098,0.002
23/08/2023,07:02:26,0.131,0.0,0.101,0.003
23/08/2023,07:03:25,0.130,0.0,0.103,0.002
23/08/2023,07:04:26,0.129,0.0,0.105,0.002
23/08/2023,07:05:25,0.130,0.0,0.107,0.002
23/08/2023,07:06:26,0.135,0.0,0.109,0.002
23/08/2023,07:07:25,0.138,0.0,0.112,0.003
23/08/2023,07:08:25,0.141,0.0,0.114,0.002
23/08/2023,07:09:25,0.144,0.0,0.116,0.002
23/08/2023,07:10:26,0.148,0.0,0.119,0.003
23/08/2023,07:11:26,0.150,0.0,0.121,0.002
23/08/2023,07:12:25,0.154,0.0,0.124,0.003
23/08/2023,07:13:25,0.158,0.0,0.126,0.002
23/08/2023,07:14:26,0.161,0.0,0.129,0.003
23/08/2023,07:15:26,0.164,0.0,0.132,0.003
23/08/2023,07:16:26,0.169,0.0,0.135,0.003
23/08/2023,07:17:25,0.172,0.0,0.137,0.002
23/08/2023,07:18:26,0.173,0.0,0.14,0.003
23/08/2023,07:19:25,0.172,0.0,0.143,0.003
23/08/2023,07:20:26,0.170,0.0,0.146,0.003
23/08/2023,07:21:26,0.173,0.0,0.149,0.003
23/08/2023,07:22:30,0.177,0.0,0.152,0.003
23/08/2023,07:23:27,0.181,0.0,0.155,0.003
23/08/2023,07:24:25,0.182,0.0,0.158,0.003
23/08/2023,07:25:24,0.183,0.0,0.161,0.003
23/08/2023,07:26:24,0.184,0.0,0.164,0.003
23/08/2023,07:27:26,0.186,0.0,0.167,0.003
23/08/2023,07:28:25,0.188,0.0,0.17,0.003
23/08/2023,07:29:26,0.192,0.0,0.173,0.003
23/08/2023,07:30:26,0.197,0.0,0.176,0.003
23/08/2023,07:31:26,0.200,0.0,0.18,0.004
23/08/2023,07:32:25,0.203,0.0,0.183,0.003
23/08/2023,07:33:26,0.207,0.0,0.187,0.004
23/08/2023,07:34:26,0.212,0.0,0.19,0.003
23/08/2023,07:35:25,0.216,0.0,0.194,0.004
23/08/2023,07:36:24,0.218,1.0,0.197,0.003
23/08/2023,07:37:24,0.218,1.0,0.201,0.004
23/08/2023,07:38:26,0.219,1.0,0.204,0.003
23/08/2023,07:39:26,0.218,1.0,0.208,0.004
23/08/2023,07:40:26,0.219,1.0,0.212,0.004
23/08/2023,07:41:26,0.220,1.0,0.215,0.003
23/08/2023,07:42:26,0.222,1.0,0.219,0.004
23/08/2023,07:43:25,0.222,1.0,0.223,0.004
23/08/2023,07:44:26,0.225,1.0,0.227,0.004
23/08/2023,07:45:26,0.227,1.0,0.23,0.003
23/08/2023,07:46:25,0.230,1.0,0.234,0.004
23/08/2023,07:47:25,0.235,1.0,0.238,0.004
23/08/2023,07:48:24,0.235,1.0,0.242,0.004
23/08/2023,07:49:23,0.235,1.0,0.246,0.004
23/08/2023,07:50:26,0.234,1.0,0.25,0.004
23/08/2023,07:51:26,0.230,1.0,0.254,0.004
23/08/2023,07:52:26,0.230,1.0,0.257,0.003
23/08/2023,07:53:26,0.234,1.0,0.261,0.004
23/08/2023,07:54:26,0.241,1.0,0.265,0.004
23/08/2023,07:55:25,0.248,1.0,0.269,0.004
23/08/2023,07:56:26,0.254,1.0,0.274,0.005
23/08/2023,07:57:25,0.260,1.0,0.278,0.004
23/08/2023,07:58:26,0.263,1.0,0.282,0.004
23/08/2023,07:59:26,0.266,1.0,0.287,0.005
23/08/2023,08:00:26,0.273,1.0,0.291,0.004
23/08/2023,08:01:26,0.280,1.0,0.296,0.005
23/08/2023,08:02:26,0.290,1.0,0.3,0.004
23/08/2023,08:03:26,0.304,1.0,0.305,0.005
23/08/2023,08:04:26,0.317,1.0,0.311,0.006
23/08/2023,08:05:26,0.330,1.0,0.316,0.005
23/08/2023,08:06:25,0.344,1.0,0.322,0.006
23/08/2023,08:07:26,0.358,1.0,0.327,0.005
23/08/2023,08:08:25,0.371,1.0,0.334,0.007
23/08/2023,08:09:26,0.386,1.0,0.34,0.006
23/08/2023,08:10:25,0.401,1.0,0.346,0.006
23/08/2023,08:11:25,0.415,1.0,0.353,0.007
23/08/2023,08:12:26,0.430,1.0,0.36,0.007
23/08/2023,08:13:26,0.446,1.0,0.368,0.008
23/08/2023,08:14:26,0.453,1.0,0.375,0.007
23/08/2023,08:15:26,0.489,1.0,0.383,0.008
23/08/2023,08:16:25,0.565,1.0,0.391,0.008
23/08/2023,08:17:25,0.523,1.0,0.4,0.009
23/08/2023,08:18:25,0.509,1.0,0.409,0.009
23/08/2023,08:19:26,0.593,1.0,0.418,0.009
23/08/2023,08:20:25,0.563,1.0,0.428,0.01
23/08/2023,08:21:25,0.525,1.0,0.438,0.01
23/08/2023,08:22:26,0.538,1.0,0.447,0.009
23/08/2023,08:23:26,0.559,1.0,0.456,0.009
23/08/2023,08:24:26,0.561,1.0,0.465,0.009
23/08/2023,08:25:26,0.585,1.0,0.475,0.01
23/08/2023,08:26:26,0.599,1.0,0.485,0.01
23/08/2023,08:27:26,0.597,1.0,0.495,0.01
23/08/2023,08:28:26,0.563,1.0,0.505,0.01
23/08/2023,08:29:26,0.541,1.0,0.514,0.009
23/08/2023,08:30:26,0.523,1.0,0.523,0.009
23/08/2023,08:31:26,0.513,1.0,0.531,0.008
23/08/2023,08:32:26,0.513,1.0,0.54,0.009
23/08/2023,08:33:26,0.514,1.0,0.549,0.009
23/08/2023,08:34:25,0.516,1.0,0.557,0.008
23/08/2023,08:35:26,0.524,1.0,0.566,0.009
23/08/2023,08:36:24,0.531,1.0,0.574,0.008
23/08/2023,08:37:24,0.509,1.0,0.583,0.009
23/08/2023,08:38:26,0.478,1.0,0.591,0.008
23/08/2023,08:39:26,0.445,1.0,0.599,0.008
23/08/2023,08:40:26,0.412,1.0,0.606,0.007
23/08/2023,08:41:26,0.395,1.0,0.613,0.007
23/08/2023,08:42:25,0.404,1.0,0.62,0.007
23/08/2023,08:43:26,0.417,1.0,0.626,0.006
23/08/2023,08:44:26,0.436,1.0,0.634,0.008
23/08/2023,08:45:26,0.447,1.0,0.641,0.007
23/08/2023,08:46:26,0.453,1.0,0.648,0.007
23/08/2023,08:47:26,0.459,1.0,0.656,0.008
23/08/2023,08:48:25,0.460,1.0,0.664,0.008
23/08/2023,08:49:26,0.461,1.0,0.671,0.007
23/08/2023,08:50:26,0.468,1.0,0.679,0.008
23/08/2023,08:51:26,0.475,1.0,0.687,0.008
23/08/2023,08:52:26,0.494,1.0,0.695,0.008
23/08/2023,08:53:26,0.516,1.0,0.703,0.008
23/08/2023,08:54:26,0.539,1.0,0.712,0.009
23/08/2023,08:55:26,0.543,1.0,0.721,0.009
23/08/2023,08:56:26,0.537,1.0,0.73,0.009
23/08/2023,08:57:26,0.543,1.0,0.739,0.009
23/08/2023,08:58:26,0.565,1.0,0.748,0.009
23/08/2023,08:59:26,0.596,1.0,0.758,0.01
23/08/2023,09:00:26,0.629,1.0,0.768,0.01
23/08/2023,09:01:26,0.657,2.0,0.779,0.011
23/08/2023,09:02:24,0.669,2.0,0.79,0.011
23/08/2023,09:03:23,0.683,2.0,0.801,0.011
23/08/2023,09:04:25,0.711,2.0,0.813,0.012
23/08/2023,09:05:26,0.733,2.0,0.825,0.012
23/08/2023,09:06:27,0.738,2.0,0.838,0.013
23/08/2023,09:07:27,0.724,2.0,0.85,0.012
23/08/2023,09:08:26,0.694,2.0,0.861,0.011
23/08/2023,09:09:26,0.658,2.0,0.873,0.012
23/08/2023,09:10:26,0.624,1.0,0.883,0.01
23/08/2023,09:11:26,0.617,1.0,0.894,0.011
23/08/2023,09:12:26,0.622,1.0,0.904,0.01
23/08/2023,09:13:25,0.658,2.0,0.915,0.011
23/08/2023,09:14:26,0.704,2.0,0.926,0.011
23/08/2023,09:15:26,0.768,2.0,0.938,0.012
23/08/2023,09:16:25,0.810,2.0,0.951,0.013
23/08/2023,09:17:26,0.869,2.0,0.965,0.014
23/08/2023,09:18:26,0.894,2.0,0.98,0.015
23/08/2023,09:19:26,0.883,2.0,0.995,0.015
23/08/2023,09:20:26,0.910,2.0,1.01,0.015
23/08/2023,09:21:25,0.943,2.0,1.026,0.016
23/08/2023,09:22:26,0.893,2.0,1.041,0.015
23/08/2023,09:23:26,0.908,2.0,1.056,0.015
23/08/2023,09:24:26,0.836,2.0,1.071,0.015
23/08/2023,09:25:26,0.783,2.0,1.084,0.013
23/08/2023,09:26:26,0.815,2.0,1.098,0.014
23/08/2023,09:27:26,0.833,2.0,1.112,0.014
23/08/2023,09:28:25,0.778,2.0,1.125,0.013
23/08/2023,09:29:25,0.741,2.0,1.138,0.013
23/08/2023,09:30:26,0.711,2.0,1.15,0.012
23/08/2023,09:31:26,0.694,2.0,1.162,0.012
23/08/2023,09:32:26,0.684,2.0,1.173,0.011
23/08/2023,09:33:29,0.684,2.0,1.185,0.012
23/08/2023,09:34:27,0.709,2.0,1.196,0.011
23/08/2023,09:35:26,0.761,2.0,1.208,0.012
23/08/2023,09:36:26,0.836,2.0,1.221,0.013
23/08/2023,09:37:26,0.904,2.0,1.236,0.015
23/08/2023,09:38:26,0.941,2.0,1.252,0.016
23/08/2023,09:39:26,0.973,2.0,1.268,0.016
23/08/2023,09:40:26,1.005,2.0,1.284,0.016
23/08/2023,09:41:26,1.058,2.0,1.301,0.017
23/08/2023,09:42:24,1.045,2.0,1.318,0.017
23/08/2023,09:43:24,1.082,2.0,1.336,0.018
23/08/2023,09:44:26,1.072,2.0,1.355,0.019
23/08/2023,09:45:26,1.048,2.0,1.372,0.017
23/08/2023,09:46:26,1.025,2.0,1.389,0.017
23/08/2023,09:47:26,1.065,2.0,1.407,0.018
23/08/2023,09:48:26,1.072,2.0,1.424,0.017
23/08/2023,09:49:26,1.297,3.0,1.443,0.019
23/08/2023,09:50:26,1.198,3.0,1.464,0.021
23/08/2023,09:51:26,1.243,3.0,1.484,0.02
23/08/2023,09:52:26,1.204,3.0,1.505,0.021
23/08/2023,09:53:27,1.290,3.0,1.527,0.022
23/08/2023,09:54:26,1.210,3.0,1.547,0.02
23/08/2023,09:55:26,1.207,3.0,1.567,0.02
23/08/2023,09:56:26,1.466,3.0,1.589,0.022
23/08/2023,09:57:26,1.430,3.0,1.612,0.023
23/08/2023,09:58:26,1.200,3.0,1.633,0.021
23/08/2023,09:59:26,1.248,3.0,1.654,0.021
23/08/2023,10:00:25,1.339,3.0,1.676,0.022